{"data":{"norad_id":66495,"intl_designator":"2025-263L","name":"STARLINK-35832","alt_names":[],"object_type":"PAYLOAD","status":"ACTIVE","operator":null,"country":"US","launch_date":"2025-11-15","launch_site_code":"AFETR","launch_vehicle":null,"mission":null,"orbit_class":"UNKNOWN","rcs_meters":null,"size_class":null,"mass_kg":null,"dimensions":null,"purposes":["comms"],"wikipedia_slug":null,"has_3d_model":false,"image_url":null,"decayed_at":null,"tle_current":{"epoch":"2026-05-25T02:01:55.010208Z","epoch_age_seconds":64421,"freshness":"FRESH","line1":"1 66495U 25263L   26145.08466447  .00027273  00000+0  99697-3 0  9998","line2":"2 66495  42.9990 279.1649 0000243 347.6720  12.4126 15.27579179 30586","mean_motion":15.27579179,"eccentricity":2.43e-5,"inclination_deg":42.999,"raan_deg":279.1649,"arg_perigee_deg":347.672,"mean_anomaly_deg":12.4126,"bstar":0.00099697,"rev_number":3058,"period_min":94.266799377474,"perigee_km":482.88482752824,"apogee_km":483.21828129198,"semimajor_km":6861.1885544101,"source":"CELESTRAK","updated_at":"2026-05-25T13:38:21.243815Z"}}}